User: anonymous   Login
Location: Barnston
(51.8500°N, 0.4000°E)
Time: 11:29:13
(UTC+00:00)
Language:

YAOGAN 6 - Orbit

View from above orbital plane
View from above orbital plane
View from above satellite
View from above satellite

Ground track
Ground track

The orbit data is extracted from the following two-line orbital elements,

1 34839U 09021A   24057.16881462  .00019616  00000-0  44222-3 0  9993
2 34839  97.1600  26.0324 0017544 222.9938 136.9941 15.43121586826156
Epoch (UTC): 26 February 2024 04:03:05
Eccentricity: 0.0017544
inclination: 97.1600°
perigee height: 425 km
apogee height: 449 km
right ascension of ascending node: 26.0324°
argument of perigee: 222.9938°
revolutions per day: 15.43121586
mean anomaly at epoch: 136.9941°
orbit number at epoch: 82615

The dashed part of the orbit path shows where the satellite is in the earth's shadow,  

DLR